| time (UTC) | temp C | wind direction | speed KPH | gust KPH | rain 1hr cm | rain 24hr cm | rain mn cm | humidity % | barometer mb |
| 20260502210031 | 15 | 360 | 4.8 | 9.7 | 0.00 | 0.00 | 0.00 | 39 | 1022.4 |
| 20260502204550 | 15 | 360 | 4.8 | 14.5 | 0.00 | 0.00 | 0.00 | 39 | 1022.5 |
| 20260502203006 | 15 | 360 | 1.6 | 6.4 | 0.00 | 0.00 | 0.00 | 39 | 1022.7 |
| 20260502201519 | 15 | 360 | 1.6 | 17.7 | 0.00 | 0.00 | 0.00 | 43 | 1022.8 |
| 20260502200030 | 16 | 360 | 4.8 | 22.5 | 0.00 | 0.00 | 0.00 | 41 | 1023.0 |
| 20260502194550 | 16 | 360 | 3.2 | 9.7 | 0.00 | 0.00 | 0.00 | 43 | 1023.1 |
| 20260502193118 | 15 | 360 | 0.0 | 12.9 | 0.00 | 0.00 | 0.00 | 40 | 1023.2 |
| 20260502193002 | 15 | 360 | 3.2 | 16.1 | 0.00 | 0.00 | 0.00 | 42 | 1023.2 |
| 20260502191515 | 15 | 360 | 8.0 | 17.7 | 0.00 | 0.00 | 0.00 | 41 | 1023.4 |
| 20260502190030 | 15 | 360 | 1.6 | 19.3 | 0.00 | 0.00 | 0.00 | 42 | 1023.5 |
| 20260502184543 | 15 | 360 | 6.4 | 16.1 | 0.00 | 0.00 | 0.00 | 46 | 1023.6 |
| 20260502183058 | 14 | 360 | 1.6 | 9.7 | 0.00 | 0.00 | 0.00 | 43 | 1023.9 |
| 20260502181513 | 14 | 360 | 0.0 | 9.7 | 0.00 | 0.00 | 0.00 | 45 | 1023.9 |
| 20260502163031 | 13 | 360 | 4.8 | 16.1 | 0.00 | 0.00 | 0.00 | 41 | 1024.5 |
| 20260502161542 | 12 | 360 | 4.8 | 16.1 | 0.00 | 0.00 | 0.00 | 48 | 1024.5 |
| 20260502160107 | 12 | 360 | 8.0 | 20.9 | 0.00 | 0.00 | 0.00 | 46 | 1024.5 |
| 20260502151539 | 11 | 360 | 8.0 | 20.9 | 0.00 | 0.00 | 0.00 | 55 | 1024.6 |
| 20260502123038 | 5 | 360 | 1.6 | 4.8 | 0.00 | 0.00 | 0.00 | 79 | 1023.8 |
| 20260502121549 | 5 | 360 | 1.6 | 3.2 | 0.00 | 0.00 | 0.00 | 80 | 1023.7 |
| 20260502114529 | 4 | 360 | 1.6 | 4.8 | 0.00 | 0.00 | 0.00 | 80 | 1023.3 |
| 20260502113036 | 4 | 360 | 1.6 | 3.2 | 0.00 | 0.00 | 0.00 | 80 | 1023.1 |
| 20260502111555 | 4 | 360 | 1.6 | 3.2 | 0.00 | 0.00 | 0.00 | 80 | 1023.0 |
| 20260502110009 | 4 | 360 | 1.6 | 3.2 | 0.00 | 0.00 | 0.00 | 79 | 1022.9 |
| 20260502104522 | 5 | 360 | 1.6 | 3.2 | 0.00 | 0.00 | 0.00 | 78 | 1022.9 |
| 20260502103029 | 5 | 360 | 1.6 | 4.8 | 0.00 | 0.00 | 0.00 | 77 | 1022.8 |
| 20260502101606 | 5 | 360 | 3.2 | 4.8 | 0.00 | 0.00 | 0.00 | 76 | 1022.7 |
| 20260502071516 | 7 | 360 | 1.6 | 4.8 | 0.00 | 0.00 | 0.00 | 63 | 1021.9 |
| 20260502070029 | 7 | 360 | 1.6 | 8.0 | 0.00 | 0.00 | 0.00 | 63 | 1021.9 |
| 20260502064610 | 8 | 360 | 3.2 | 4.8 | 0.00 | 0.00 | 0.00 | 61 | 1022.0 |
| 20260502063125 | 8 | 360 | 3.2 | 4.8 | 0.00 | 0.00 | 0.00 | 61 | 1022.0 |
| 20260502061510 | 8 | 360 | 1.6 | 4.8 | 0.00 | 0.00 | 0.00 | 60 | 1022.0 |
| 20260502060040 | 8 | 360 | 3.2 | 6.4 | 0.00 | 0.00 | 0.00 | 60 | 1022.0 |
| 20260502054540 | 8 | 360 | 3.2 | 4.8 | 0.00 | 0.00 | 0.00 | 58 | 1022.0 |
| 20260502053057 | 9 | 360 | 3.2 | 6.4 | 0.00 | 0.00 | 0.00 | 57 | 1021.9 |
| 20260502051509 | 9 | 360 | 3.2 | 6.4 | 0.00 | 0.00 | 0.00 | 56 | 1021.9 |
| 20260502050023 | 10 | 360 | 1.6 | 6.4 | 0.00 | 0.00 | 0.00 | 55 | 1021.9 |
| 20260502044526 | 10 | 360 | 3.2 | 6.4 | 0.00 | 0.00 | 0.00 | 54 | 1021.8 |
| 20260502043105 | 10 | 360 | 3.2 | 4.8 | 0.00 | 0.00 | 0.00 | 53 | 1021.8 |
| 20260502041602 | 11 | 360 | 3.2 | 8.0 | 0.00 | 0.00 | 0.00 | 50 | 1021.7 |
| 20260502040022 | 11 | 360 | 3.2 | 6.4 | 0.00 | 0.00 | 0.00 | 51 | 1021.5 |
| 20260502034528 | 11 | 360 | 3.2 | 11.3 | 0.00 | 0.00 | 0.00 | 51 | 1021.5 |
| 20260502033043 | 11 | 360 | 3.2 | 8.0 | 0.00 | 0.00 | 0.00 | 53 | 1021.4 |
| 20260502031556 | 11 | 360 | 1.6 | 4.8 | 0.00 | 0.00 | 0.00 | 53 | 1021.4 |
| 20260502030014 | 11 | 360 | 1.6 | 4.8 | 0.00 | 0.00 | 0.00 | 53 | 1021.1 |
| 20260502024526 | 12 | 360 | 1.6 | 4.8 | 0.00 | 0.00 | 0.00 | 51 | 1021.0 |
| 20260502023042 | 12 | 360 | 1.6 | 4.8 | 0.00 | 0.00 | 0.00 | 51 | 1020.7 |
| 20260502021554 | 12 | 360 | 1.6 | 6.4 | 0.00 | 0.00 | 0.00 | 49 | 1020.5 |
| 20260502020014 | 13 | 360 | 1.6 | 4.8 | 0.00 | 0.00 | 0.00 | 49 | 1020.3 |
| 20260502014524 | 13 | 360 | 1.6 | 9.7 | 0.00 | 0.00 | 0.00 | 48 | 1020.0 |
| 20260502013034 | 13 | 360 | 3.2 | 6.4 | 0.00 | 0.00 | 0.00 | 48 | 1019.8 |
| 20260502011544 | 13 | 360 | 3.2 | 8.0 | 0.00 | 0.00 | 0.00 | 46 | 1019.6 |
| 20260502010015 | 14 | 360 | 3.2 | 8.0 | 0.00 | 0.00 | 0.00 | 45 | 1019.4 |
| 20260502004525 | 15 | 360 | 3.2 | 9.7 | 0.00 | 0.00 | 0.00 | 44 | 1019.2 |
| 20260502003031 | 15 | 360 | 3.2 | 8.0 | 0.00 | 0.00 | 0.00 | 42 | 1019.0 |
| 20260502001548 | 15 | 360 | 6.4 | 17.7 | 0.00 | 0.00 | 0.00 | 40 | 1018.9 |
| 20260502000004 | 16 | 360 | 6.4 | 12.9 | 0.00 | 0.00 | 0.00 | 39 | 1018.7 |
| 20260501234516 | 16 | 360 | 9.7 | 25.7 | 0.00 | 0.00 | 0.00 | 38 | 1018.5 |
| 20260501233026 | 16 | 360 | 4.8 | 12.9 | 0.00 | 0.00 | 0.00 | 38 | 1018.5 |
| 20260501231548 | 16 | 360 | 6.4 | 16.1 | 0.00 | 0.00 | 0.00 | 37 | 1018.6 |
| 20260501230002 | 16 | 360 | 4.8 | 16.1 | 0.00 | 0.00 | 0.00 | 39 | 1018.6 |
| 20260501224532 | 16 | 360 | 8.0 | 16.1 | 0.00 | 0.00 | 0.00 | 36 | 1018.7 |
| 20260501223044 | 16 | 360 | 4.8 | 16.1 | 0.00 | 0.00 | 0.00 | 39 | 1018.6 |
| 20260501221502 | 17 | 360 | 4.8 | 27.4 | 0.00 | 0.00 | 0.00 | 38 | 1018.7 |
| 20260501220024 | 17 | 360 | 3.2 | 12.9 | 0.00 | 0.00 | 0.00 | 39 | 1018.8 |
| 20260501214548 | 17 | 360 | 6.4 | 16.1 | 0.00 | 0.00 | 0.00 | 38 | 1018.7 |
| 20260501213109 | 17 | 360 | 3.2 | 11.3 | 0.00 | 0.00 | 0.00 | 43 | 1018.9 |
| 20260501213002 | 17 | 360 | 4.8 | 11.3 | 0.00 | 0.00 | 0.00 | 42 | 1019.0 |
| 20260501211520 | 16 | 360 | 1.6 | 8.0 | 0.00 | 0.00 | 0.00 | 47 | 1019.4 |